Flag for Germany Weather past 2 weeks in Wiehl, North Rhine-Westphalia, Germany

Now
34 °F

Drizzle. Fog.


Feels Like: 34 °F
Forecast: 34 / 39 °F
Wind: 1 mph from North

Location: Koeln / Bonn

Current Time: Jan 25, 2015 at 12:11:31 PM

Latest Report: Jan 25, 2015 at 11:20 AM


Visibility: 4 mi

Pressure: 30.42 "Hg

Humidity: 100%

Dew point: 34 °F

Location of WiehlLocation

Historic Weather in Wiehl — Graph

°F

Wiehl temperature yesterday

Maximum temperature yesterday: 34 °F (at 5:20 PM)
Minimum temperature yesterday: 28 °F (at 1:20 AM)
Average temperature yesterday: 31 °F

Past Weeks' High & Low Weather Summary

 TemperatureHumidityPressure
High57 °F (Jan 10, 10:20 AM)100% (Jan 14, 4:20 AM)30.42 "Hg (Jan 14, 4:20 AM)
Low27 °F (Jan 19, 7:20 AM)54% (Jan 13, 12:20 PM)29.50 "Hg (Jan 15, 2:50 PM)
Average38 °F80%29.95 "Hg
* Reported Jan 10 10:20 AM — Jan 25 10:50 AM, Wiehl, Weather by CustomWeather, © 2014

Note: Actual official high and low records may vary slightly from our data, if they occured in-between our weather recording intervals... More about our weather records

Advertising

Wiehl weather history for previous 24 hours

 ConditionsComfort  
Time TempWeatherWind HumidityBarometerVisibility
10:50 AM
Jan 25
34 °FFog.2 mph100%30.42 "Hg4 mi
10:20 AM34 °FPartly sunny.1 mph100%30.42 "Hg4 mi
9:50 AM32 °FPartly sunny.1 mph100%30.42 "Hg3 mi
9:20 AM32 °FIce fog.2 mph100%30.42 "Hg3 mi
8:50 AM32 °FIce fog.3 mph100%30.42 "Hg3 mi
8:20 AM32 °FIce fog.2 mph100%30.39 "Hg3 mi
7:50 AM32 °FIce fog.2 mph100%30.39 "Hg3 mi
7:20 AM32 °FPassing clouds.2 mph100%30.39 "Hg4 mi
6:50 AM32 °FPartly cloudy.2 mph100%30.39 "Hg5 mi
6:20 AM30 °FPassing clouds.2 mph100%30.39 "Hg5 mi
5:50 AM30 °FPassing clouds.2 mph100%30.39 "Hg4 mi
5:20 AM30 °FPassing clouds.2 mph100%30.36 "Hg4 mi
4:20 AM30 °FIce fog.3 mph100%30.36 "Hg2 mi
3:50 AM28 °FChilly.3 mph100%30.36 "Hg2 mi
3:20 AM27 °FIce fog.3 mph100%30.36 "Hg1 mi
2:50 AM28 °FChilly.1 mph100%30.33 "Hg5 mi
2:20 AM30 °FChilly.1 mph100%30.33 "HgN/A
1:50 AM30 °FFog.2 mph100%30.33 "HgN/A
1:20 AM30 °FFog.1 mph100%30.33 "HgN/A
12:50 AM28 °FChilly.1 mph100%30.33 "HgN/A
12:20 AM30 °FChilly.2 mph100%30.33 "HgN/A
11:50 PM
Jan 24
30 °FChilly.2 mph100%30.33 "HgN/A
11:20 PM30 °FChilly.2 mph100%30.30 "HgN/A
10:50 PM30 °FIce fog.2 mph100%30.30 "Hg0 mi
10:20 PM30 °FIce fog.1 mph100%30.30 "Hg0 mi
9:50 PM28 °FIce fog.1 mph100%30.27 "Hg0 mi
9:20 PM30 °FIce fog.2 mph100%30.27 "Hg1 mi
8:50 PM32 °FIce fog.3 mph100%30.27 "Hg1 mi
8:20 PM32 °FFog.5 mph100%30.27 "Hg6 mi
7:50 PM34 °FPassing clouds.5 mph100%30.24 "HgN/A
7:20 PM34 °FPassing clouds.5 mph100%30.24 "HgN/A
6:50 PM34 °FPassing clouds.6 mph100%30.21 "Hg4 mi
6:20 PM34 °FFog.3 mph100%30.21 "Hg2 mi
5:50 PM34 °FFog.5 mph100%30.18 "Hg2 mi
5:20 PM34 °FFog.3 mph100%30.18 "Hg1 mi
4:50 PM32 °FIce fog.6 mph100%30.15 "Hg1 mi
4:20 PM32 °FIce fog.6 mph100%30.12 "Hg1 mi
3:50 PM32 °FIce fog.7 mph100%30.12 "Hg1 mi
3:20 PM32 °FIce fog.5 mph100%30.12 "Hg1 mi
2:50 PM32 °FLight snow. Ice fog.2 mph100%30.09 "Hg1 mi
2:20 PM32 °FLight snow. Ice fog.3 mph100%30.09 "Hg1 mi
1:50 PM32 °FSnow. Partly sunny.3 mph100%30.09 "Hg1 mi
1:20 PM32 °FSnow. Partly sunny.6 mph100%30.07 "Hg1 mi
12:50 PM32 °FSnow. Partly sunny.6 mph100%30.09 "Hg1 mi
12:20 PM32 °FSnow. Partly sunny.7 mph100%30.09 "Hg1 mi
Weather by CustomWeather, © 2014

See weather overviewHow to use our weather pages